Regional Weather Roundup
Issued by NWS Upton, NY

Current Version | Previous Version | Graphics & Text | Print | Product List | Glossary Off
Versions: 1 2 3 4 5 6 7 8 9 10 11 12 13 14 15 16 17 18 19 20 21 22 23 24 25 26 27 28 29 30 31 32 33 34 35 36 37 38 39 40 41 42 43 44 45 46 47 48 49 50

000
ASUS41 KOKX 312205
RWROKX

REGIONAL WEATHER ROUNDUP
NATIONAL WEATHER SERVICE NEW YORK NY
600 PM EDT SUN AUG 31 2014

NOTE: "FAIR" INDICATES FEW OR NO CLOUDS BELOW 12,000 FEET WITH NO
SIGNIFICANT WEATHER AND/OR OBSTRUCTIONS TO VISIBILITY.

NYZ071-072-176-178-NJZ106-104-312300-
NEW YORK CITY METRO AREA


CITY           SKY/WX    TMP DP  RH WIND       PRES   REMARKS
CENTRAL PARK   LGT RAIN  75  73  93 CALM      30.00S FOG
LAGUARDIA APRT TSTM      76  72  87 S5        29.97F
KENNEDY INTL   HVY RAIN  77  71  82 NW9       29.99R
NEWARK/LIBERTY LGT RAIN  80  75  84 S5        29.97S
BRNX BOT. GARD   N/A     73  72  94 E2        29.99S
TETERBORO      PTSUNNY   77  72  84 S3        29.96F
$$

NYZ177-179-078>081-312300-
LONG ISLAND NEW YORK

CITY           SKY/WX    TMP DP  RH WIND       PRES   REMARKS
FARMINGDALE    LGT RAIN  78  71  79 VRB5G17   30.00R
ISLIP          CLOUDY    78  71  79 S12G20    29.97S THUNDER
SHIRLEY        CLOUDY    76  71  85 S13       30.00S
WESTHAMPTON    PTSUNNY   76  71  85 SW9       30.01F
MONTAUK POINT    N/A     74  71  91 VRB7      30.02S
$$

NYZ052-065-067-312300-
HUDSON VALLEY

CITY           SKY/WX    TMP DP  RH WIND       PRES   REMARKS
WHITE PLAINS   PTSUNNY   76  72  87 CALM      29.98S
NEWBURGH       MOSUNNY   72  70  94 W9        30.00R
MONTGOMERY     LGT RAIN  73  71  93 SE5       29.97F
POUGHKEEPSIE   TSTM      73  70  90 VRB5      29.97R VSB 3/4
ALBANY         CLOUDY    76  71  85 S7        29.95S
$$

NJZ001-105-106-008-010-013-015-019>022-104-312300-
NEW JERSEY

CITY           SKY/WX    TMP DP  RH WIND       PRES   REMARKS
NEWARK/LIBERTY LGT RAIN  80  75  84 S5        29.97S
TETERBORO      PTSUNNY   77  72  84 S3        29.96F
CALDWELL       MOSUNNY   78  73  84 CALM      29.97F
MORRISTOWN     PTSUNNY   81  73  78 SW6       29.98F
SOMERVILLE     MOSUNNY   78  72  81 CALM      29.96F
LINDEN         FAIR      84  76  77 W3        29.98F HX  93
SUSSEX         PTSUNNY   77  72  84 CALM      29.99R
ANDOVER          N/A     79  70  74 VRB5      29.99S
TRENTON        MOSUNNY   78  73  84 W3        29.98S
MILLVILLE      SUNNY    N/A N/A N/A VRB7      30.00R
ATLANTIC CITY  MOSUNNY   83  71  67 S14G21    30.00F
WRIGHTSTOWN    PTSUNNY   84  74  70 NW6       29.96S HX  91
TOMS RIVER     CLOUDY    84  72  65 S10       29.99S
BELMAR         CLOUDY    86  72  62 S12G17    29.98S HX  92
$$

PAZ047>061-062-071-312300-
EASTERN PENNSYLVANIA

CITY           SKY/WX    TMP DP  RH WIND       PRES   REMARKS
PHILADELPHIA   LGT RAIN  84  75  74 SW15      29.99R HX  92
ALLENTOWN      PTSUNNY   81  72  74 SW10      30.00R
SCRANTON       CLOUDY    75  70  84 SW5       30.02R
$$

CTZ002-004>006-009-010-012-RIZ004-006-007-MAZ004-011-015-312300-
SOUTHERN NEW ENGLAND
 IN CT

CITY           SKY/WX    TMP DP  RH WIND       PRES   REMARKS
BRADLEY INTL   CLOUDY    83  69  62 SW6       29.96S
HARTFORD       LGT RAIN  80  73  79 S9        29.96S
DANBURY        PTSUNNY   75  72  90 CALM      29.99S
WTRBRY/OXFORD  TSTM      73  50  43 S5        30.03R FOG
BRIDGEPORT     TSTM      80  73  79 SW10      29.98R
MERIDEN        HVY RAIN  77  74  90 S7        29.99R VSB 3/4
NEW HAVEN      CLOUDY    79  73  82 S13       29.97F THUNDER
CHESTER        FAIR      77  73  88 S5        30.01S
GROTON         MOSUNNY   73  71  93 S6        30.00S FOG
WILLIMANTIC    PTSUNNY   81  72  74 S10       29.99S

 IN RI

CITY           SKY/WX    TMP DP  RH WIND       PRES   REMARKS
PROVIDENCE     PTSUNNY   80  72  76 S12       30.00R
BLOCK ISLAND   CLOUDY    73  70  88 SW15      30.02F
WESTERLY       CLOUDY    74  71  91 S13       30.02S

 IN MA

CITY           SKY/WX    TMP DP  RH WIND       PRES   REMARKS
BOSTON         CLOUDY    83  70  64 SW13      29.96R
WORCESTER      CLOUDY    77  69  76 SW9       30.01R
WESTFIELD      CLOUDY    78  72  81 S3        29.96S
PROVINCETOWN   MOSUNNY   73  70  88 SW15G21   30.00R
NANTUCKET      SUNNY     72  69  90 S13       30.04S
$$

ANZ330-335-338-340-345-350-353-355-312300-
COASTAL MARINE OBSERVATIONS


STATION/POSITION TIME  SKY/WX   TEMP    WIND        PRES    VSBY  WAVE
                                AIR SEA DIR/SP/G                  HT/PER
                 (UTC)          (F)     (DEG/KT/KT) (MB)    (MI)  (FT/S)
NY HARB ENTRANCE NOT AVBL
4S FIRE IS       NOT AVBL
23SW MTP         2200                                 N/A           4/ 5
HUDSON CANYON    2200            75 74  210/ 16/ 17 1017.5          4/10
EXECUTION ROCKS  2200            74 74  190/  8/ 12   N/A
WESTERN LI SOUND 2200            75     220/ 12/ 16   N/A           1
CENTRAL LI SOUND 2100            76 73  200/ 16/ 17   N/A           1
EASTERN LI SOUND 2100            73 69  210/  8/ 12   N/A
ROBBINS REEF     2200            75     100/  3/  4   N/A
$$


>>>>>>>>>>>>>>>>>>>>>>>>>>>> KEY <<<<<<<<<<<<<<<<<<<<<<<<<<<
>                                                          <
>     SKY/WX - SKY CONDITION/PRESENT WEATHER               <
>     TMP    - TEMPERATURE IN FAHRENHEIT                   <
>     DP     - DEWPOINT IN FAHRENHEIT                      <
>     RH     - RELATIVE HUMIDITY IN PERCENT                <
>     WIND   - DIRECTION AND SPEED IN MPH                  <
>     PRES   - MEAN SEA LEVEL PRESSURE IN INCHES OF HG     <
>     WCI    - WIND CHILL INDEX                            <
>     VSB    - VISIBILITY IN MILES                         <
>     HX     - HEAT INDEX                                  <
>     TC     - TEMPERATURE IN CELSIUS                      <
>     VRB    - VARIABLE WIND DIRECTION                     <
>                                                          <
>>>>>>>>>>>>>>>>>>>>>>>>>>>> KEY <<<<<<<<<<<<<<<<<<<<<<<<<<<




USA.gov is the U.S. government's official web portal to all federal, state and local government web resources and services.